Content
SEND FEEDBACK

Daily
Averages
Monthly
Summary
Mexico

SAN BALTAZAR TETELA, PUEBLA


Home > North America > Mexico > Puebla
Elevation: 6759 feet     Latitude: 18 54N     Longitude: 098 10W

WEATHER
 
SELECT A DAY
Number of Records: 121,241;   Date Range: 1/1/95 - 9/22/14
 
SHARE

PRINT THIS DATA

[ ← Previous Day ]
WEATHER ALMANAC - MARCH 5, 2013
[ Next Day → ]
[ °C ]   °F
Weather ElementAverageHighLow
Temperature61.3 °F80 °F (2:40 pm)35.6 °F (5:48 am)
Dewpoint17.3 °F38 °F (11:45 pm)-0.4 °F (6:40 pm)
Humidity21 %50 % (10:42 pm)5 % (1:40 pm)
Barometer30.22 in30.44 in (9:40 pm)29.72 in (5:40 pm)
Wind Speed7.2 mph16.1 mph (8:40 pm)
Wind Gust25.3 mph (6:40 pm)
Weather ElementAverage
Visibility6 mi
Wind DirectionSW (221.7 °)

Weather ElementTotal
Precipitation---
Heating Degree Days7.2 (Base 65)
Growing Degree Days7.8 (Base 50)
Averaged from 26 records on March 5, 2013
WEATHER CONDITIONS BREAKOUT
WIND DIRECTION BREAKOUT
WEATHER BY HOUR - MARCH 5, 2013
[ °C ]   °F
Local TimeTemperatureDewpointHumidityBarometerVisibilityWind DirectionWind SpeedGust SpeedPrecipitationEventsConditions
2:45 AM45.0 °F23.0 °F29 %29.91 in3.0 miNE (40°)2.2 mph
5:45 AM40.0 °F23.0 °F38 %30.03 in3.0 miCalm
5:48 AM35.6 °F8.6 °F33 %30.36 in7.0 miNNW (340°)9.2 mphClear
6:40 AM35.6 °F8.6 °F33 %30.37 in7.0 miNNW (340°)6.9 mphClear
7:41 AM39.2 °F10.4 °F31 %30.39 in6.0 miNNW (340°)9.2 mphClear
8:41 AM51.8 °F12.2 °F21 %30.39 in6.0 miNNW (340°)10.4 mphClear
8:45 AM51.0 °F23.0 °F21 %30.16 in3.0 miCalmHaze
9:43 AM62.6 °F10.4 °F13 %30.40 in6.0 miNorth (350°)5.8 mphClear
10:40 AM69.8 °F10.4 °F10 %30.39 in6.0 miNorth (10°)5.8 mphClear
11:41 AM73.4 °F5.0 °F7 %30.36 in7.0 miNorth (10°)4.6 mphClear
11:50 AM76.0 °F27.0 °F8 %30.06 in6.0 miWest (280°)8.9 mphHaze
12:41 PM75.2 °F1.4 °F6 %30.33 in8.0 miWNW (300°)3.5 mphClear
1:40 PM77.0 °F1.4 °F5 %30.29 in8.0 miSSE (150°)3.5 mphClear
2:40 PM80.0 °F27.0 °F7 %29.85 in6.0 miSSW (200°)4.5 mphHaze
2:44 PM78.8 °F3.2 °F5 %30.26 in8.0 miNorth (350°)9.2 mphClear
3:41 PM77.0 °F15.8 °F10 %30.26 in8.0 miSouth (180°)8.1 mphClear
4:40 PM77.0 °F12.2 °F9 %30.26 in8.0 miSouth (190°)6.9 mphClear
5:40 PM75.0 °F23.0 °F7 %29.72 in3.0 miSE (140°)4.5 mphHaze
5:40 PM71.6 °F5.0 °F7 %30.29 in8.0 miENE (60°)11.5 mph23.0 mphClear
6:40 PM66.2 °F-0.4 °F7 %30.32 in7.0 miNNE (30°)13.8 mph25.3 mphClear
7:42 PM59.0 °F33.8 °F39 %30.37 in6.0 miNorth (350°)13.8 mphClear
8:40 PM55.4 °F35.6 °F47 %30.42 in6.0 miNNW (340°)16.1 mphClear
8:45 PM63.0 °F24.0 °F12 %29.75 in3.0 miNNE (20°)2.2 mph
9:40 PM53.6 °F33.8 °F47 %30.44 in7.0 miNNW (330°)13.8 mphClear
10:42 PM51.8 °F33.8 °F50 %30.44 in7.0 miNorth (360°)10.4 mphClear
11:45 PM54.0 °F38.0 °F44 %29.86 in3.0 miWest (270°)2.2 mph
Hourly data recorded from MMPB, located miles away from San Baltazar Tetela, Puebla







STORIES FROM OUR PARTNERS